Location: PSU-Greenbush Astrophysical Observatory
(37.5140°N, 94.9880°W)
Time: 19:01:39
(UTC-06:00)

Transit 2A - Pass Details

Date: 30 January 2020
Orbit: 599 x 959 km, 66.7° (Epoch: 27 February)

Event Time Altitude Azimuth Distance (km) Brightness Sun altitude
Rises 17:22:40 0° 165° (SSE) 2,927 9.2 2.6°
Reaches altitude 10° 17:25:49 10° 142° (SE) 1,978 8.0 2.0°
Maximum altitude 17:28:20 15° 107° (ESE) 1,650 7.3 1.6°
Drops below altitude 10° 17:30:49 10° 72° (ENE) 1,945 7.5 1.1°
Sets 17:33:51 0° 49° (NE) 2,847 8.3 0.6°
